Voltar ao catálogo

LEMUR-2-HOTSPUR-TOM

AtivoCiênciaSSO
NORAD 66786·PAYLOAD·🇺🇸 United States

Lançado Nov 28, 2025 de Vandenberg Space Force Base

Loading…

Próximas Passagens (próximas 24 horas)

TLE

AtualizadoSource: Space-Track

Época: Sep 14, 2026, 22:05 UTC

1 66786U 25276EA  26257.92033662  .00005014  00000-0  40930-3 0  9997
2 66786  97.5132 325.4701 0015659 187.6276 172.4712 14.99759135 43573

Acompanhe LEMUR-2-HOTSPUR-TOM em tempo real com AllMySat

Download on the App Store